Retour au catalogue

STARLINK-37783

ActifCommunicationsSSO
NORAD 69438·PAYLOAD·🇺🇸 United States

Lancé Jun 7, 2026 depuis Vandenberg Space Force Base

Loading…

Prochains Passages (prochaines 24 heures)

TLE

FraisSource: CelesTrak SupGP

Époque: Sep 15, 2026, 03:55 UTC

1 69438C 26126U   26258.16368056 -.00026195  00000+0 -81298-3 0  2588
2 69438  97.2849 119.4794 0002566  94.3775  24.8859 15.33456975    15

Suivez STARLINK-37783 en temps réel avec AllMySat

Download on the App Store